Location: Unspecified
(0.0000°N, 0.0000°E)
Time: 20:16:23
(UTC+00:00)

Tiangong 2 - Pass Details

Date: 13 January 2018
Orbit: 384 x 390 km, 42.8° (Epoch: 16 January)

Event Time Altitude Azimuth Distance (km) Brightness Sun altitude
Exits shadow 03:56:34 12° 115° (ESE) 1,313 4.6 -30.5°
Drops below altitude 10° 03:57:07 10° 106° (ESE) 1,404 4.8 -30.3°
Sets 04:00:02 0° 76° (ENE) 2,257 5.7 -29.7°
